[[{"header":{"parameterUnit":"m.s-1","parameterCategory":1,"la1":30.2991,"la2":30.254,"lo1":-89.0895,"lo2":-89.0444,"dy":0.0017,"dx":0.0017,"nx":28,"ny":28,"refTime":"2023-10-28T09:00:00:Z","depth":0,"parameterNumber":2,"parameterNumberName":"U-component_of_WINDS"},"data":[0,0,0,0,0,0,0,0,0,0,0,0,0,0,0,0,0,0,0,0,0,0,0,0,0,0,0,0,0,0,0,0,0,0,0,0,0,0,0,0,0,0,0,0,0,0,0,0,0,0,0,0,0,0,0,0,0,0,-3.5067,-3.5066,0,-3.5015,-3.5014,-3.5014,-3.4936,-3.4935,-3.4934,-3.4932,-3.4881,-3.4881,-3.4881,0,0,0,0,0,0,0,0,0,0,0,0,0,-3.5101,-3.5101,-3.5067,-3.5066,-3.5065,-3.5015,-3.5014,-3.5014,-3.4937,-3.4935,-3.4933,-3.4932,-3.4881,-3.4881,-3.4881,0,0,0,0,0,0,0,0,0,0,0,0,0,-3.5072,-3.5101,-3.5067,-3.5021,-3.5016,-3.5015,-3.5014,-3.5014,-3.4937,-3.4935,-3.4933,-3.4931,-3.4881,-3.4881,-3.4881,-3.4922,0,0,-3.4881,-3.4881,0,0,0,0,0,0,0,0,-3.5073,-3.507,-3.5028,-3.5024,-3.5019,-3.498,-3.5008,-3.4983,-3.4938,-3.4967,-3.4932,-3.493,-3.4916,-3.4913,-3.4908,-3.4919,-3.4917,-3.4881,-3.4881,-3.4881,-3.4881,0,0,0,0,0,0,0,-3.5076,-3.5072,-3.5046,-3.5028,-3.5022,-3.5004,-3.4997,-3.5003,-3.4954,-3.4964,-3.4959,-3.4953,-3.4913,-3.4908,-3.4906,-3.4916,-3.4881,-3.4881,-3.488,-3.488,-3.4962,-3.4964,0,0,0,0,0,0,-3.5084,-3.5074,-3.5048,-3.5045,-3.5041,-3.5005,-3.4997,-3.4995,-3.4953,-3.4945,-3.4955,-3.495,-3.4909,-3.4906,-3.4904,-3.4951,-3.4881,-3.488,-3.488,-3.4959,-3.4962,-3.4965,0,0,0,0,0,0,-3.5085,-3.5082,-3.505,-3.5058,-3.5052,-3.5006,-3.5004,-3.4995,-3.499,-3.4947,-3.4938,-3.4959,-3.4907,-3.4904,-3.4918,-3.4948,-3.488,-3.488,-3.4957,-3.496,-3.4963,-3.5044,0,0,0,0,0,0,-3.5086,-3.5083,-3.5097,-3.5059,-3.5052,-3.5064,-3.5005,-3.4995,-3.4989,-3.4982,-3.4948,-3.494,-3.4906,-3.4919,-3.4918,-3.4946,-3.488,-3.4954,-3.4958,-3.4962,-3.5038,-3.5049,-3.5059,0,0,0,0,0,-3.5088,-3.5121,-3.5098,-3.5095,-3.5069,-3.5066,-3.5063,-3.5022,-3.4992,-3.5006,-3.4979,-3.4941,-3.4945,-3.4921,-3.492,-3.4948,-3.4952,-3.4957,-3.4962,-3.5033,-3.5047,-3.5059,0,0,0,0,0,0,-3.5164,-3.5115,-3.5089,-3.5111,-3.5094,-3.5053,-3.507,-3.5037,-3.5027,-3.5021,-3.4971,-3.4964,-3.4986,-3.4968,-3.4943,-3.4987,-3.4943,-3.4948,-3.4998,-3.501,-3.502,-3.5025,-3.488,0,0,0,0,0,-3.5184,-3.5185,-3.5142,-3.5166,-3.5159,-3.5116,-3.5113,-3.5084,-3.5064,-3.5056,-3.5029,-3.5012,-3.5009,-3.5008,-3.5003,-3.5035,-3.5028,-3.5054,-3.5065,-3.5073,-3.5079,-3.5097,-3.5109,-3.4981,-3.4981,-3.4981,0,0,-3.5224,-3.5197,-3.5201,-3.5181,-3.5163,-3.5168,-3.511,-3.5116,-3.5119,-3.5057,-3.5069,-3.505,-3.5027,-3.5051,-3.506,-3.5037,-3.5113,-3.508,-3.5087,-3.5087,-3.5104,-3.5116,-3.5127,-3.4985,-3.4984,-3.4983,0,0,-3.5299,-3.5278,-3.5297,-3.5281,-3.5256,-3.5228,-3.5233,-3.5198,-3.5183,-3.5194,-3.5149,-3.5152,-3.5147,-3.5134,-3.5127,-3.52,-3.5166,-3.52,-3.5255,-3.5273,-3.5283,-3.5292,-3.5321,-3.5331,-3.5205,-3.5206,-3.5206,0,-3.5352,-3.5355,-3.531,-3.532,-3.5314,-3.5258,-3.5278,-3.5265,-3.524,-3.5237,-3.5211,-3.5207,-3.5187,-3.5209,-3.5227,-3.5222,-3.5228,-3.5204,-3.5285,-3.5294,-3.5301,-3.5328,-3.5339,-3.521,-3.521,-3.5209,-3.5209,0,-3.5423,-3.5426,-3.5444,-3.5422,-3.5418,-3.5432,-3.5391,-3.5392,-3.5364,-3.5339,-3.5354,-3.5329,-3.5319,-3.5322,-3.5293,-3.534,-3.5327,-3.5294,-3.5249,-3.5319,-3.5343,-3.5353,-3.5216,-3.5215,-3.5213,-3.5212,0,0,-3.5543,-3.5498,-3.5506,-3.5496,-3.5466,-3.5468,-3.5481,-3.5472,-3.5475,-3.546,-3.5471,-3.547,-3.5441,-3.5432,-3.5402,-3.5419,-3.5482,-3.5384,-3.5383,-3.5405,-3.5535,-3.5562,-3.5574,-3.5459,-3.546,-3.5462,-3.5538,0,-3.5614,-3.5633,-3.5595,-3.5624,-3.5628,-3.5577,-3.5588,-3.5572,-3.555,-3.5551,-3.5527,-3.5528,-3.5487,-3.5482,-3.5496,-3.5471,-3.5508,-3.5465,-3.5471,-3.5471,-3.548,-3.5586,-3.5614,-3.5687,-3.5547,-3.5549,-3.555,0,-3.5698,-3.5689,-3.5719,-3.5689,-3.5689,-3.5701,-3.5691,-3.5691,-3.5673,-3.5656,-3.5649,-3.5614,-3.5627,-3.5583,-3.5601,-3.5573,-3.5573,-3.5562,-3.5564,-3.5564,-3.5516,-3.5591,-3.5709,-3.5721,-3.5564,-3.5563,-3.5562,0,-3.5787,-3.5781,-3.5799,-3.5792,-3.5757,-3.5767,-3.5753,-3.5732,-3.573,-3.5721,-3.572,-3.5713,-3.571,-3.5706,-3.5672,-3.5642,-3.5695,-3.5648,-3.5684,-3.5685,-3.5698,-3.5698,-3.5819,-3.5695,-3.5695,-3.5695,-3.5695,0,-3.587,-3.5891,-3.5838,-3.585,-3.5872,-3.5829,-3.5853,-3.5834,-3.5816,-3.5824,-3.5779,-3.5788,-3.574,-3.5745,-3.5717,-3.5739,-3.5737,-3.5725,-3.5718,-3.573,-3.5732,-3.5731,-3.5725,-3.5698,-3.5697,-3.5697,-3.5696,0,-3.5972,-3.5938,-3.5954,-3.5921,-3.5913,-3.5931,-3.5903,-3.5913,-3.5889,-3.59,-3.59,-3.5862,-3.5865,-3.583,-3.5825,-3.5808,-3.5842,-3.5825,-3.5849,-3.5844,-3.5883,-3.588,-3.6008,-3.6024,-3.5889,-3.589,-3.5891,0,-3.6029,-3.6044,-3.6013,-3.6015,-3.6003,-3.6007,-3.6005,-3.5963,-3.5963,-3.5945,-3.5958,-3.5957,-3.5954,-3.5962,-3.5935,-3.5932,-3.5916,-3.5961,-3.5915,-3.5928,-3.592,-3.592,-3.5923,-3.5971,-3.5973,-3.5974,-3.5975,0,-3.6134,-3.6116,-3.6115,-3.6108,-3.6107,-3.61,-3.609,-3.6095,-3.605,-3.6052,-3.6055,-3.6053,-3.605,-3.605,-3.6043,-3.603,-3.5997,-3.599,-3.5999,-3.6012,-3.6026,-3.6022,-3.5877,-3.5987,-3.5986,-3.5985,-3.5985,-3.5984,-3.6216,-3.6228,-3.6209,-3.621,-3.6198,-3.619,-3.6199,-3.6176,-3.6177,-3.6171,-3.6147,-3.6155,-3.6138,-3.6125,-3.6116,-3.6122,-3.6101,-3.6112,-3.6116,-3.612,-3.6128,-3.6024,-3.6121,-3.612,-3.612,-3.6119,-3.6119,0,-3.632,-3.6306,-3.6307,-3.6295,-3.6296,-3.6264,-3.6252,-3.6256,-3.6263,-3.625,-3.6249,-3.6254,-3.6255,-3.6229,-3.6227,-3.6238,-3.6223,-3.6239,-3.6239,-3.6237,-3.6146,-3.614,-3.6252,-3.6252,-3.6252,-3.6252,-3.6251,-3.6251,-3.6375,-3.6395,-3.6376,-3.639,-3.6376,-3.6383,-3.6379,-3.6373,-3.6363,-3.637,-3.6371,-3.6354,-3.6337,-3.6334,-3.6335,-3.6327,-3.633,-3.6352,-3.634,-3.6256,-3.6243,-3.6231,-3.6225,-3.6352,-3.6352,-3.643,-3.6431,-3.6431]},{"header":{"parameterUnit":"m.s-1","parameterCategory":1,"la1":30.2991,"la2":30.254,"lo1":-89.0895,"lo2":-89.0444,"dy":0.0017,"dx":0.0017,"nx":28,"ny":28,"refTime":"2023-10-28T09:00:00:Z","depth":0,"parameterNumber":3,"parameterNumberName":"V-component_of_WINDS"},"data":[0,0,0,0,0,0,0,0,0,0,0,0,0,0,0,0,0,0,0,0,0,0,0,0,0,0,0,0,0,0,0,0,0,0,0,0,0,0,0,0,0,0,0,0,0,0,0,0,0,0,0,0,0,0,0,0,0,0,1.3481,1.3481,0,1.3465,1.3464,1.3464,1.3528,1.353,1.3532,1.3534,1.3513,1.3511,1.3508,0,0,0,0,0,0,0,0,0,0,0,0,0,1.3565,1.3563,1.3481,1.3481,1.3481,1.3465,1.3464,1.3464,1.3528,1.353,1.3533,1.3535,1.3514,1.3511,1.3508,0,0,0,0,0,0,0,0,0,0,0,0,0,1.3537,1.3563,1.3481,1.3511,1.3513,1.3465,1.3464,1.3464,1.3527,1.353,1.3533,1.3536,1.3515,1.3511,1.3508,1.3429,0,0,1.3497,1.3495,0,0,0,0,0,0,0,0,1.3538,1.3533,1.3506,1.3509,1.3511,1.3502,1.3487,1.3452,1.3527,1.3522,1.3534,1.3537,1.3507,1.3504,1.3494,1.3428,1.3427,1.3497,1.3495,1.3493,1.3492,0,0,0,0,0,0,0,1.354,1.3535,1.3474,1.3506,1.3509,1.3524,1.3523,1.348,1.3498,1.3523,1.3527,1.3525,1.3508,1.3498,1.3494,1.3427,1.3497,1.3494,1.3491,1.349,1.3296,1.3293,0,0,0,0,0,0,1.3539,1.3536,1.3475,1.3474,1.3532,1.352,1.3519,1.3502,1.3499,1.3501,1.3522,1.3528,1.3502,1.3498,1.3494,1.3401,1.3493,1.349,1.3488,1.3299,1.3295,1.3292,0,0,0,0,0,0,1.354,1.3533,1.3476,1.3506,1.35,1.3516,1.3496,1.35,1.3489,1.3499,1.3502,1.3508,1.3504,1.3499,1.3445,1.3402,1.3488,1.3485,1.3302,1.3298,1.3293,1.3216,0,0,0,0,0,0,1.3542,1.3533,1.3503,1.3505,1.3498,1.3427,1.3493,1.3497,1.3483,1.349,1.3486,1.3488,1.3506,1.345,1.3442,1.3398,1.3482,1.3306,1.33,1.3295,1.3222,1.3209,1.3198,0,0,0,0,0,1.3545,1.3481,1.3501,1.3494,1.3462,1.3425,1.3421,1.3444,1.348,1.345,1.3456,1.3488,1.3408,1.3444,1.3435,1.339,1.3309,1.3302,1.3295,1.3228,1.3212,1.3198,0,0,0,0,0,0,1.3471,1.3481,1.3504,1.3439,1.3431,1.3436,1.3398,1.3426,1.3406,1.3413,1.3442,1.344,1.3382,1.3381,1.342,1.3314,1.3365,1.3356,1.3316,1.3301,1.3289,1.329,1.3479,0,0,0,0,0,1.3448,1.3418,1.3428,1.3369,1.3364,1.3382,1.3367,1.3386,1.3378,1.3374,1.3377,1.3367,1.334,1.3321,1.3296,1.3224,1.3223,1.3188,1.3176,1.3166,1.3157,1.3119,1.3104,1.3269,1.3269,1.3269,0,0,1.3397,1.34,1.3379,1.3355,1.335,1.3318,1.3378,1.3341,1.3317,1.3368,1.3318,1.3319,1.331,1.3247,1.3219,1.3244,1.3112,1.3157,1.3149,1.3146,1.3111,1.3095,1.3081,1.3265,1.3265,1.3266,0,0,1.329,1.3289,1.324,1.3236,1.323,1.3243,1.3231,1.3232,1.3236,1.3187,1.3224,1.3196,1.3149,1.3141,1.3131,1.3024,1.3052,1.3015,1.295,1.2913,1.29,1.2888,1.2849,1.2835,1.3007,1.3006,1.3006,0,1.3228,1.3182,1.3211,1.3172,1.316,1.3208,1.3158,1.3152,1.3137,1.3128,1.3157,1.31,1.3097,1.3033,1.3007,1.2998,1.2985,1.3014,1.2899,1.2888,1.2878,1.2841,1.2826,1.3002,1.3002,1.3003,1.3003,0,1.3106,1.3074,1.3035,1.3022,1.3006,1.2962,1.2984,1.2965,1.2986,1.2995,1.2945,1.2944,1.292,1.2907,1.2926,1.2846,1.2862,1.2895,1.2946,1.2857,1.2823,1.2809,1.2995,1.2997,1.2998,1.2999,0,0,1.2948,1.2954,1.2939,1.2935,1.2933,1.2908,1.2867,1.2846,1.2828,1.2817,1.2782,1.2743,1.2774,1.2763,1.2782,1.275,1.2665,1.2787,1.2787,1.2763,1.2575,1.2549,1.2532,1.2685,1.2682,1.268,1.2576,0,1.2842,1.2772,1.2798,1.2726,1.2697,1.2743,1.2707,1.2701,1.271,1.2686,1.2695,1.2666,1.271,1.2704,1.2674,1.2681,1.2627,1.2689,1.2651,1.265,1.265,1.2514,1.2486,1.2387,1.2563,1.256,1.2559,0,1.2707,1.2694,1.2619,1.2624,1.2613,1.258,1.2564,1.254,1.2536,1.2544,1.2533,1.256,1.2519,1.2573,1.2517,1.2558,1.2545,1.2547,1.2543,1.2539,1.2597,1.2505,1.2356,1.2341,1.2538,1.254,1.2541,0,1.2599,1.2561,1.2512,1.2507,1.2512,1.2488,1.2488,1.2487,1.2473,1.2459,1.245,1.2431,1.2419,1.2404,1.2425,1.2462,1.2366,1.242,1.237,1.237,1.2346,1.2347,1.2191,1.234,1.234,1.2341,1.2341,0,1.2476,1.2428,1.2464,1.2433,1.2381,1.2413,1.236,1.2366,1.2365,1.2336,1.2375,1.2346,1.2377,1.2351,1.2368,1.2319,1.2314,1.2319,1.2323,1.2314,1.2313,1.2304,1.2311,1.2337,1.2338,1.2338,1.2339,0,1.2344,1.2366,1.2315,1.2326,1.2327,1.2288,1.2297,1.2268,1.2282,1.2244,1.2237,1.2257,1.2229,1.225,1.2222,1.2233,1.2168,1.2183,1.217,1.2173,1.2122,1.2126,1.1954,1.1932,1.2096,1.2094,1.2093,0,1.2263,1.2228,1.2236,1.222,1.2219,1.2193,1.218,1.221,1.2195,1.2188,1.2161,1.2137,1.2119,1.2073,1.2084,1.2063,1.2077,1.2018,1.2073,1.2066,1.2074,1.2076,1.2072,1.2006,1.2004,1.2002,1.2001,0,1.2118,1.2131,1.2112,1.2096,1.208,1.2069,1.2061,1.2045,1.2077,1.2057,1.2031,1.2017,1.199,1.1966,1.1949,1.1949,1.1979,1.1984,1.1971,1.196,1.1954,1.1956,1.2137,1.1987,1.1988,1.1989,1.199,1.1991,1.2008,1.198,1.1981,1.1958,1.1956,1.1948,1.1922,1.1933,1.1912,1.1893,1.1913,1.188,1.1878,1.186,1.1856,1.1831,1.1855,1.1836,1.1831,1.1826,1.1818,1.196,1.1828,1.1829,1.1829,1.1829,1.183,0,1.1864,1.1868,1.1847,1.1835,1.1818,1.1851,1.1844,1.1827,1.1798,1.1794,1.1777,1.1747,1.1724,1.1735,1.1715,1.1692,1.1706,1.1686,1.1686,1.1686,1.1798,1.1811,1.1675,1.1675,1.1675,1.1675,1.1675,1.1675,1.1786,1.174,1.1753,1.1706,1.171,1.168,1.1673,1.1666,1.1664,1.1629,1.1611,1.1619,1.1621,1.1602,1.1582,1.1586,1.1576,1.155,1.1559,1.1663,1.1678,1.1692,1.1704,1.1548,1.1548,1.1449,1.1448,1.1447]}]]